Tracking 20710 objects as of 30-May-2020
HD Live streaming from Space Station
objects crossing your sky now

CZ-2C DEB

Track CZ-2C DEB now!
10-day predictions


NORAD ID: 37770
Int'l Code: 2011-039F
Perigee: 641.6 km
Apogee: 773.0 km
Inclination: 97.8 °
Period: 98.8 minutes
Semi major axis: 7078 km
RCS: 0.0832 m2 (small)
Launch date: July 29, 2011
Source: People's Republic of China (PRC)
Launch site: Jiuquan Satellite Launch Center, China (JSC)

Note: This is SATELLITE DEBRIS
aabbcc
Your satellite tracking list
Your tracking list is empty




NASA's NSSDC Master Catalog

Two Line Element Set (TLE):
1 37770U 11039F   20150.50030723 +.00000492 +00000-0 +11108-3 0  9995
2 37770 097.8294 113.9306 0092804 245.0060 238.7748 14.57843936468432
Source of the keplerian elements: AFSPC